Weather History for Homer, AK

Change the Weather History Date:

Thursday, November 11, 2010

  Actual Average Record
Temperature  
Mean Temperature 34 °F -  
Max Temperature 37 °F 36 °F 53 °F (2014)
Min Temperature 30 °F 24 °F 1 °F (1989)
Degree Days  
Heating Degree Days 32    
Moisture  
Dew Point 32 °F    
Average Humidity 89    
Maximum Humidity 96    
Minimum Humidity 79    
Precipitation  
Precipitation 0.04 in - - ()
Sea Level Pressure  
Sea Level Pressure 29.26 in    
Wind  
Wind Speed 9 mph (NE)    
Max Wind Speed 16 mph    
Max Gust Speed 23 mph    
Visibility 10 miles    
Events Rain    
Averages and records for this station are not official NWS values.
T = Trace of Precipitation, MM = Missing Value Source: NWS Daily Summary

Daily Weather History Graph

Daily Weather History Graph

Search for Another Location

Airport:

Trip Planner

Search our weather history database for the weather conditions in past years. The results will help you decide how hot, cold, wet, or windy it might be!

Date:

Astronomy

Nov. 11, 2010 Rise Set
Actual Time 8:52 AM AKST 4:46 PM AKST
Civil Twilight 8:05 AM AKST 5:33 PM AKST
Nautical Twilight 7:14 AM AKST 6:24 PM AKST
Astronomical Twilight 6:26 AM AKST 7:12 PM AKST
Moon 2:04 PM AKST (11/11) 10:01 PM AKST (11/11)
Length of Visible Light 9h 28m
Length of Day
7h 54m
Waxing Crescent, 33% of the Moon is Illuminated
Nov 11
Waxing Crescent
Nov 13
First Quarter
Nov 21
Full
Nov 28
Last Quarter
Dec 5
New

Hourly Weather History & Observations

Time (AKST) Temp. Windchill Dew Point Humidity Pressure Visibility Wind Dir Wind Speed Gust Speed Precip Events Conditions
12:53 AM 34.0 °F 25.0 °F 30.9 °F 89% 29.26 in 10.0 mi NE 12.7 mph - 0.01 in   Overcast
1:53 AM 35.1 °F 25.9 °F 32.0 °F 89% 29.26 in 10.0 mi ENE 13.8 mph - 0.00 in   Overcast
2:15 AM 33.8 °F 27.7 °F 32.0 °F 93% 29.26 in 10.0 mi NNE 6.9 mph - 0.00 in   Overcast
2:28 AM 33.8 °F 27.0 °F 32.0 °F 93% 29.26 in 9.0 mi NNE 8.1 mph - 0.00 in Rain Light Rain
3:53 AM 36.0 °F 30.3 °F 30.0 °F 79% 29.24 in 10.0 mi NE 6.9 mph - 0.02 in   Overcast
4:53 AM 35.1 °F 31.0 °F 30.9 °F 85% 29.25 in 10.0 mi NNW 4.6 mph - N/A   Mostly Cloudy
5:53 AM 35.1 °F 27.4 °F 32.0 °F 89% 29.27 in 10.0 mi NE 10.4 mph - 0.00 in Rain Light Rain
6:38 AM 33.8 °F 26.4 °F 30.2 °F 87% 29.26 in 10.0 mi ENE 9.2 mph - 0.00 in   Overcast
6:53 AM 34.0 °F 28.0 °F 32.0 °F 92% 29.26 in 10.0 mi NE 6.9 mph - 0.00 in   Overcast
7:53 AM 34.0 °F 24.2 °F 32.0 °F 92% 29.27 in 10.0 mi ENE 15.0 mph - 0.00 in   Mostly Cloudy
8:53 AM 34.0 °F 23.8 °F 32.0 °F 92% 29.28 in 10.0 mi NE 16.1 mph 23.0 mph 0.00 in Rain Light Rain
9:53 AM 33.1 °F 26.1 °F 32.0 °F 96% 29.29 in 10.0 mi East 8.1 mph - 0.01 in   Overcast
10:53 AM 33.1 °F 26.1 °F 30.9 °F 92% 29.28 in 10.0 mi SE 8.1 mph - N/A   Clear
11:53 AM 36.0 °F 32.1 °F 32.0 °F 86% 29.29 in 10.0 mi East 4.6 mph - N/A   Clear
12:53 PM 36.0 °F 33.3 °F 33.1 °F 89% 29.28 in 10.0 mi SSE 3.5 mph - N/A   Partly Cloudy
1:53 PM 37.0 °F 33.3 °F 33.1 °F 86% 29.27 in 10.0 mi NNE 4.6 mph - N/A   Mostly Cloudy
2:53 PM 37.0 °F 31.0 °F 33.1 °F 86% 29.27 in 10.0 mi NE 8.1 mph - N/A   Clear
3:53 PM 37.0 °F 31.0 °F 33.1 °F 86% 29.25 in 10.0 mi NE 8.1 mph - N/A   Overcast
4:53 PM 37.0 °F 31.0 °F 34.0 °F 89% 29.26 in 10.0 mi NE 8.1 mph - N/A   Overcast
5:53 PM 35.1 °F 31.0 °F 32.0 °F 89% 29.26 in 10.0 mi Variable 4.6 mph - N/A   Overcast
6:53 PM 35.1 °F 31.0 °F 30.9 °F 85% 29.26 in 10.0 mi NNW 4.6 mph - N/A   Mostly Cloudy
7:53 PM 30.9 °F - 28.9 °F 92% 29.26 in 10.0 mi Calm Calm - N/A   Mostly Cloudy
8:53 PM 37.9 °F 32.7 °F 32.0 °F 79% 29.26 in 10.0 mi SSW 6.9 mph - N/A   Overcast
9:53 PM 33.1 °F - 30.9 °F 92% 29.26 in 10.0 mi Calm Calm - N/A   Partly Cloudy
10:53 PM 33.1 °F 25.5 °F 30.0 °F 89% 29.25 in 10.0 mi ENE 9.2 mph - N/A   Clear
11:53 PM 34.0 °F 27.2 °F 32.0 °F 92% 29.26 in 10.0 mi ENE 8.1 mph - N/A   Overcast